[[{"header":{"parameterUnit":"m.s-1","parameterCategory":1,"la1":30.2991,"la2":30.254,"lo1":-89.0895,"lo2":-89.0444,"dy":0.0017,"dx":0.0017,"nx":28,"ny":28,"refTime":"2024-10-08T09:00:00:Z","depth":0,"parameterNumber":2,"parameterNumberName":"U-component_of_WINDS"},"data":[0,0,0,0,0,0,0,0,0,0,0,0,0,0,0,0,0,0,0,0,0,0,0,0,0,0,0,0,0,0,0,0,0,0,0,0,0,0,0,0,0,0,0,0,0,0,0,0,0,0,0,0,0,0,0,0,0,0,-1.2173,-1.2174,0,-1.2238,-1.2239,-1.224,-1.2208,-1.2206,-1.2204,-1.2203,-1.2271,-1.2274,-1.2278,0,0,0,0,0,0,0,0,0,0,0,0,0,-1.2022,-1.2025,-1.2173,-1.2174,-1.2175,-1.2238,-1.2239,-1.224,-1.2208,-1.2206,-1.2204,-1.2202,-1.227,-1.2274,-1.2278,0,0,0,0,0,0,0,0,0,0,0,0,0,-1.2087,-1.2026,-1.2173,-1.2166,-1.2166,-1.2238,-1.2239,-1.224,-1.2208,-1.2206,-1.2203,-1.2201,-1.2269,-1.2274,-1.2279,-1.2361,0,0,-1.2294,-1.2296,0,0,0,0,0,0,0,0,-1.2084,-1.2093,-1.2166,-1.2167,-1.2167,-1.2212,-1.2211,-1.2281,-1.2209,-1.2193,-1.2203,-1.22,-1.2254,-1.226,-1.2278,-1.2364,-1.2367,-1.2295,-1.2298,-1.23,-1.2301,0,0,0,0,0,0,0,-1.2079,-1.209,-1.2199,-1.2168,-1.2168,-1.216,-1.2167,-1.2224,-1.2237,-1.2194,-1.2192,-1.22,-1.2253,-1.2273,-1.2279,-1.2368,-1.2295,-1.2299,-1.2302,-1.2304,-1.2525,-1.2527,0,0,0,0,0,0,-1.2075,-1.2086,-1.2197,-1.2201,-1.2118,-1.2165,-1.2172,-1.22,-1.2236,-1.2239,-1.2202,-1.2198,-1.2265,-1.2273,-1.2281,-1.238,-1.23,-1.2305,-1.2308,-1.2522,-1.2525,-1.2528,0,0,0,0,0,0,-1.2071,-1.2085,-1.2194,-1.2143,-1.2156,-1.217,-1.2202,-1.2203,-1.2222,-1.2242,-1.2244,-1.2219,-1.2264,-1.2274,-1.2341,-1.2382,-1.2307,-1.2312,-1.2518,-1.2523,-1.2527,-1.2579,0,0,0,0,0,0,-1.2067,-1.2084,-1.2115,-1.2144,-1.2159,-1.2253,-1.2204,-1.2206,-1.2231,-1.2227,-1.2259,-1.2262,-1.2263,-1.2334,-1.2346,-1.2388,-1.2316,-1.2515,-1.252,-1.2525,-1.2574,-1.2584,-1.2593,0,0,0,0,0,-1.2062,-1.2128,-1.2117,-1.213,-1.2199,-1.2255,-1.2264,-1.2263,-1.2234,-1.2266,-1.2279,-1.2261,-1.2375,-1.2341,-1.2355,-1.2399,-1.2512,-1.2519,-1.2525,-1.2569,-1.2582,-1.2593,0,0,0,0,0,0,-1.2104,-1.2131,-1.212,-1.2197,-1.2224,-1.225,-1.229,-1.2277,-1.2313,-1.2308,-1.2305,-1.2313,-1.2382,-1.2397,-1.2358,-1.248,-1.2439,-1.2449,-1.2468,-1.2481,-1.2491,-1.2487,-1.232,0,0,0,0,0,-1.2122,-1.2166,-1.2187,-1.2253,-1.2267,-1.2276,-1.2301,-1.2297,-1.2326,-1.2337,-1.2355,-1.2383,-1.2425,-1.2453,-1.2493,-1.2574,-1.2581,-1.2611,-1.2621,-1.2629,-1.2638,-1.2682,-1.2696,-1.2549,-1.2549,-1.2549,0,0,-1.2161,-1.2181,-1.2209,-1.2262,-1.2283,-1.2328,-1.2286,-1.2336,-1.237,-1.2345,-1.241,-1.2423,-1.2454,-1.2529,-1.2563,-1.2543,-1.268,-1.2637,-1.2644,-1.2648,-1.269,-1.2704,-1.2717,-1.2553,-1.2552,-1.2552,0,0,-1.2255,-1.2273,-1.2331,-1.2352,-1.2383,-1.2389,-1.2402,-1.243,-1.2438,-1.2502,-1.2484,-1.2524,-1.2597,-1.262,-1.2642,-1.2742,-1.2727,-1.2755,-1.2808,-1.2851,-1.2863,-1.2873,-1.291,-1.2923,-1.2763,-1.2763,-1.2763,0,-1.2299,-1.2366,-1.2362,-1.2413,-1.2437,-1.2415,-1.2473,-1.2494,-1.2537,-1.2555,-1.2531,-1.2622,-1.2642,-1.2721,-1.2746,-1.2763,-1.2779,-1.2752,-1.2861,-1.2871,-1.2881,-1.2916,-1.293,-1.2766,-1.2766,-1.2766,-1.2765,0,-1.2419,-1.2466,-1.2509,-1.255,-1.2579,-1.2633,-1.2637,-1.2666,-1.266,-1.2668,-1.2733,-1.2755,-1.28,-1.2818,-1.2812,-1.2897,-1.2884,-1.2861,-1.2821,-1.2898,-1.2932,-1.2945,-1.2771,-1.277,-1.2769,-1.2768,0,0,-1.2544,-1.2581,-1.2597,-1.2616,-1.2648,-1.2684,-1.2737,-1.278,-1.2805,-1.2835,-1.288,-1.2941,-1.292,-1.2944,-1.294,-1.2978,-1.3057,-1.2951,-1.2951,-1.2971,-1.3153,-1.3171,-1.3187,-1.3046,-1.3049,-1.3051,-1.315,0,-1.2641,-1.2734,-1.2731,-1.2818,-1.2862,-1.284,-1.2886,-1.2911,-1.2919,-1.2957,-1.2966,-1.301,-1.2978,-1.2992,-1.3028,-1.304,-1.3094,-1.3032,-1.3089,-1.3091,-1.3084,-1.3204,-1.3224,-1.3317,-1.3163,-1.3165,-1.3167,0,-1.2768,-1.2801,-1.2893,-1.2918,-1.2936,-1.2977,-1.3016,-1.3052,-1.3079,-1.3083,-1.3109,-1.3099,-1.3152,-1.3109,-1.3183,-1.3142,-1.3164,-1.3173,-1.3176,-1.3184,-1.3136,-1.3216,-1.3346,-1.3361,-1.3187,-1.3185,-1.3184,0,-1.2852,-1.2919,-1.2983,-1.2999,-1.3029,-1.3059,-1.3073,-1.3098,-1.3123,-1.3156,-1.3173,-1.3212,-1.3234,-1.3264,-1.3265,-1.3233,-1.3341,-1.3297,-1.3346,-1.3346,-1.3371,-1.337,-1.3509,-1.3383,-1.3382,-1.3382,-1.3382,0,-1.2962,-1.3019,-1.3021,-1.306,-1.3123,-1.3118,-1.318,-1.3191,-1.3213,-1.3254,-1.3237,-1.3276,-1.3274,-1.3313,-1.3314,-1.3376,-1.3385,-1.339,-1.339,-1.3393,-1.3392,-1.3409,-1.3404,-1.3386,-1.3385,-1.3384,-1.3384,0,-1.3068,-1.3071,-1.3139,-1.3161,-1.3168,-1.3214,-1.3233,-1.327,-1.3276,-1.3328,-1.334,-1.3349,-1.3394,-1.3397,-1.3449,-1.345,-1.3525,-1.3517,-1.3517,-1.3516,-1.3565,-1.3561,-1.3721,-1.3742,-1.36,-1.3602,-1.3603,0,-1.3139,-1.3182,-1.3209,-1.3235,-1.3251,-1.3293,-1.3318,-1.3314,-1.3342,-1.3375,-1.3409,-1.3452,-1.3487,-1.356,-1.3571,-1.3611,-1.3605,-1.3658,-1.3611,-1.3612,-1.3608,-1.3606,-1.3611,-1.3668,-1.367,-1.3671,-1.3672,0,-1.3265,-1.3264,-1.3302,-1.334,-1.3371,-1.34,-1.3428,-1.345,-1.3449,-1.3481,-1.3527,-1.3553,-1.3606,-1.365,-1.3688,-1.3703,-1.3688,-1.3686,-1.37,-1.3705,-1.3703,-1.3706,-1.3544,-1.3683,-1.3682,-1.3682,-1.3681,-1.368,-1.3357,-1.3395,-1.3419,-1.3461,-1.3481,-1.3507,-1.3543,-1.3553,-1.3591,-1.3633,-1.3628,-1.3679,-1.3704,-1.3754,-1.3771,-1.3811,-1.3793,-1.3813,-1.3818,-1.3824,-1.3829,-1.3695,-1.3818,-1.3818,-1.3817,-1.3817,-1.3817,0,-1.3484,-1.3499,-1.3537,-1.3576,-1.3609,-1.359,-1.3619,-1.3648,-1.3693,-1.3718,-1.3752,-1.3804,-1.3846,-1.386,-1.39,-1.3929,-1.3924,-1.394,-1.3939,-1.3943,-1.3843,-1.3827,-1.3944,-1.3944,-1.3944,-1.3944,-1.3944,-1.3944,-1.3555,-1.3617,-1.3619,-1.3691,-1.3705,-1.3754,-1.3773,-1.3796,-1.3816,-1.3875,-1.3909,-1.3917,-1.3938,-1.3979,-1.4016,-1.4019,-1.4036,-1.4056,-1.4056,-1.3963,-1.395,-1.3938,-1.3924,-1.4059,-1.4059,-1.4153,-1.4154,-1.4155]},{"header":{"parameterUnit":"m.s-1","parameterCategory":1,"la1":30.2991,"la2":30.254,"lo1":-89.0895,"lo2":-89.0444,"dy":0.0017,"dx":0.0017,"nx":28,"ny":28,"refTime":"2024-10-08T09:00:00:Z","depth":0,"parameterNumber":3,"parameterNumberName":"V-component_of_WINDS"},"data":[0,0,0,0,0,0,0,0,0,0,0,0,0,0,0,0,0,0,0,0,0,0,0,0,0,0,0,0,0,0,0,0,0,0,0,0,0,0,0,0,0,0,0,0,0,0,0,0,0,0,0,0,0,0,0,0,0,0,-6.0524,-6.0525,0,-6.0616,-6.0617,-6.0619,-6.0528,-6.0524,-6.0521,-6.0517,-6.0607,-6.0613,-6.0619,0,0,0,0,0,0,0,0,0,0,0,0,0,-6.0263,-6.0268,-6.0524,-6.0525,-6.0526,-6.0616,-6.0618,-6.0619,-6.0529,-6.0524,-6.052,-6.0516,-6.0605,-6.0612,-6.0619,0,0,0,0,0,0,0,0,0,0,0,0,0,-6.0368,-6.027,-6.0523,-6.0492,-6.049,-6.0616,-6.0618,-6.0619,-6.0529,-6.0524,-6.0519,-6.0514,-6.0603,-6.0612,-6.062,-6.078,0,0,-6.0646,-6.065,0,0,0,0,0,0,0,0,-6.0362,-6.0377,-6.0495,-6.0494,-6.0492,-6.0555,-6.0558,-6.0673,-6.0531,-6.0514,-6.0517,-6.0511,-6.0594,-6.0603,-6.0632,-6.0784,-6.0788,-6.0647,-6.0652,-6.0656,-6.0658,0,0,0,0,0,0,0,-6.0355,-6.0373,-6.056,-6.0497,-6.0495,-6.0471,-6.048,-6.058,-6.0583,-6.0515,-6.0509,-6.0522,-6.0592,-6.0624,-6.0633,-6.079,-6.0647,-6.0654,-6.066,-6.0663,-6.1077,-6.1083,0,0,0,0,0,0,-6.0352,-6.0367,-6.0557,-6.0563,-6.0413,-6.048,-6.049,-6.054,-6.0582,-6.0583,-6.0526,-6.0517,-6.0612,-6.0624,-6.0636,-6.0827,-6.0656,-6.0664,-6.0669,-6.1071,-6.1079,-6.1085,0,0,0,0,0,0,-6.0346,-6.0369,-6.0553,-6.0464,-6.0485,-6.0491,-6.0547,-6.0545,-6.0577,-6.059,-6.0589,-6.0558,-6.0608,-6.0624,-6.0745,-6.0828,-6.0668,-6.0676,-6.1065,-6.1074,-6.1082,-6.1209,0,0,0,0,0,0,-6.0339,-6.0368,-6.043,-6.0466,-6.049,-6.0663,-6.0553,-6.0551,-6.0593,-6.0582,-6.062,-6.0621,-6.0605,-6.0733,-6.0754,-6.0837,-6.0682,-6.1057,-6.1069,-6.1079,-6.1197,-6.1221,-6.1241,0,0,0,0,0,-6.033,-6.0461,-6.0434,-6.0457,-6.0569,-6.0668,-6.0682,-6.0662,-6.06,-6.0661,-6.0669,-6.062,-6.0816,-6.0746,-6.0769,-6.0856,-6.1052,-6.1065,-6.1078,-6.1187,-6.1216,-6.124,0,0,0,0,0,0,-6.0434,-6.0465,-6.0435,-6.0582,-6.0623,-6.0653,-6.073,-6.0693,-6.0752,-6.0739,-6.0711,-6.072,-6.0849,-6.0864,-6.0786,-6.1013,-6.0923,-6.0942,-6.0998,-6.1026,-6.1047,-6.1041,-6.0689,0,0,0,0,0,-6.0474,-6.0554,-6.0576,-6.0703,-6.0726,-6.0725,-6.0767,-6.0749,-6.0789,-6.0806,-6.0823,-6.0863,-6.0933,-6.098,-6.1046,-6.1198,-6.1205,-6.1269,-6.1291,-6.1309,-6.1326,-6.1407,-6.1436,-6.1128,-6.1128,-6.1128,0,0,-6.0557,-6.0584,-6.0636,-6.0725,-6.0755,-6.0836,-6.074,-6.083,-6.089,-6.0819,-6.0935,-6.0949,-6.0991,-6.1129,-6.1191,-6.1146,-6.1412,-6.1326,-6.134,-6.1347,-6.1424,-6.1453,-6.1479,-6.1137,-6.1135,-6.1134,0,0,-6.0751,-6.078,-6.0889,-6.0921,-6.0968,-6.0966,-6.0993,-6.1028,-6.1035,-6.1151,-6.11,-6.1169,-6.1291,-6.1324,-6.1357,-6.1563,-6.1519,-6.1584,-6.1699,-6.1779,-6.1803,-6.1825,-6.1898,-6.1925,-6.1601,-6.1601,-6.1601,0,-6.0848,-6.0971,-6.0949,-6.1044,-6.1084,-6.1025,-6.1135,-6.1166,-6.1232,-6.126,-6.1209,-6.1362,-6.1386,-6.1531,-6.1581,-6.1609,-6.1637,-6.158,-6.1802,-6.1823,-6.1843,-6.1912,-6.194,-6.1609,-6.1608,-6.1607,-6.1606,0,-6.1088,-6.1174,-6.1256,-6.1323,-6.1372,-6.1474,-6.1466,-6.1518,-6.1495,-6.1499,-6.1617,-6.1645,-6.1715,-6.1747,-6.1725,-6.1889,-6.186,-6.1806,-6.1716,-6.188,-6.1945,-6.1972,-6.162,-6.1617,-6.1615,-6.1613,0,0,-6.135,-6.1404,-6.1434,-6.1464,-6.1511,-6.1576,-6.1675,-6.1745,-6.179,-6.1837,-6.1918,-6.2023,-6.1974,-6.2011,-6.1991,-6.2062,-6.2223,-6.1999,-6.1999,-6.204,-6.2405,-6.2446,-6.2477,-6.2194,-6.2199,-6.2203,-6.2402,0,-6.1545,-6.1719,-6.1702,-6.1865,-6.1944,-6.1889,-6.1974,-6.2012,-6.2018,-6.2084,-6.2088,-6.2164,-6.2093,-6.2115,-6.2182,-6.219,-6.2296,-6.2175,-6.2269,-6.2272,-6.2261,-6.2511,-6.2554,-6.274,-6.2427,-6.2431,-6.2434,0,-6.1796,-6.1854,-6.2027,-6.2063,-6.2095,-6.2173,-6.2236,-6.23,-6.2341,-6.2339,-6.2382,-6.235,-6.2447,-6.2355,-6.2487,-6.2405,-6.2442,-6.2452,-6.2458,-6.2467,-6.2364,-6.2526,-6.2799,-6.2827,-6.2474,-6.2471,-6.2468,0,-6.1971,-6.2091,-6.221,-6.2237,-6.2282,-6.2337,-6.2358,-6.2394,-6.2437,-6.2491,-6.2519,-6.2583,-6.2619,-6.2668,-6.2654,-6.2588,-6.279,-6.2696,-6.2791,-6.2792,-6.2837,-6.2834,-6.312,-6.286,-6.286,-6.2859,-6.2859,0,-6.2191,-6.2299,-6.2289,-6.2363,-6.2481,-6.246,-6.2577,-6.259,-6.2623,-6.2696,-6.2651,-6.272,-6.2698,-6.2766,-6.2755,-6.2867,-6.2883,-6.2884,-6.288,-6.2888,-6.2888,-6.2913,-6.2899,-6.2867,-6.2865,-6.2864,-6.2862,0,-6.2406,-6.2404,-6.253,-6.2562,-6.2573,-6.2659,-6.2685,-6.2753,-6.2755,-6.2849,-6.2869,-6.2872,-6.295,-6.2941,-6.3027,-6.3019,-6.3158,-6.3138,-6.3146,-6.3141,-6.3237,-6.3228,-6.3548,-6.3589,-6.3303,-6.3306,-6.3308,0,-6.2547,-6.2629,-6.2671,-6.2718,-6.2743,-6.2819,-6.2863,-6.2845,-6.2893,-6.2945,-6.3007,-6.3081,-6.3139,-6.3265,-6.3274,-6.3339,-6.3321,-6.3428,-6.333,-6.3336,-6.3323,-6.3318,-6.3326,-6.3448,-6.3451,-6.3454,-6.3456,0,-6.2798,-6.2793,-6.286,-6.2928,-6.2982,-6.3034,-6.308,-6.3121,-6.3106,-6.3162,-6.3242,-6.3287,-6.3376,-6.345,-6.3512,-6.353,-6.3491,-6.3487,-6.3512,-6.3522,-6.3523,-6.3524,-6.3199,-6.348,-6.3477,-6.3475,-6.3474,-6.3473,-6.2981,-6.3051,-6.3092,-6.3168,-6.3201,-6.3245,-6.3311,-6.3322,-6.3389,-6.3461,-6.3445,-6.3536,-6.3573,-6.3652,-6.3678,-6.3747,-6.3707,-6.3744,-6.3754,-6.3763,-6.3775,-6.3512,-6.3758,-6.3757,-6.3756,-6.3756,-6.3755,0,-6.3229,-6.3253,-6.3323,-6.3391,-6.345,-6.3409,-6.3459,-6.3511,-6.3591,-6.363,-6.3689,-6.3781,-6.3852,-6.3866,-6.3934,-6.3986,-6.397,-6.4004,-6.4001,-6.4006,-6.3806,-6.3777,-6.4017,-6.4017,-6.4017,-6.4017,-6.4017,-6.4016,-6.3366,-6.3483,-6.3483,-6.3616,-6.3637,-6.3727,-6.3759,-6.3799,-6.383,-6.3936,-6.3995,-6.4005,-6.4034,-6.4103,-6.4166,-6.4168,-6.4195,-6.4237,-6.4232,-6.4046,-6.402,-6.3995,-6.3968,-6.4243,-6.4243,-6.4426,-6.4428,-6.4429]}]]